sat.trackr.live / text

‹ back to catalog

STARLINK-5284

NORAD 55297 · 2023-010AE

PAYLOAD ACTIVE UNKNOWN

§ Identity

Operator
Country
US
Launch date
2023-01-19
Launch site
AFWTR
Launch vehicle
Mass (kg)
RCS (m²)

Purposes: comms

External: N2YO · Heavens-Above · Gunter

§ Orbital elements

Epoch: 2026-05-25T03:34:25.239072Z

Period
96.11 min
Inclination
69.9987°
Eccentricity
0.0003719
Mean motion
14.98330259 rev/d
Perigee alt
569.5 km
Apogee alt
574.6 km
Semi-major
6,950.2 km
B*
2.5655e-5
RAAN
191.6073°
Arg perigee
267.8164°
Mean anomaly
92.2569°
Rev number
18,472

§ Raw data

STARLINK-52841 55297U 23010AE  26145.14890323  .00000213  00000+0  25655-4 0  99942 55297  69.9987 191.6073 0003719 267.8164  92.2569 14.98330259184728

JSON: /api/v1/satellites/55297 · /tle

For live sub-satellite position, see the globe view (requires WebGL).

§ Visibility from observer

Set your observer location to see the next 7 days of passes ≥ 10°. The values pass through the URL so the page stays shareable.

No JS? Fill the form by hand. The geolocation button needs JavaScript.